Location: Carnières
(50.1682°N, 3.3474°E)
Time: 13:26:07
(UTC+00:00)

IDEFIX/ARIANE 42P - Pass Details

Date: 23 May 2024
Orbit: 783 x 799 km, 98.5° (Epoch: 16 June)

Event Time Altitude Azimuth Distance (km) Brightness Sun altitude
Rises 02:57:04 0° 7° (N) 3,318 6.7 -7.3°
Reaches altitude 10° 02:59:43 10° 355° (N) 2,384 5.7 -7.0°
Maximum altitude 03:04:03 27° 300° (WNW) 1,508 3.9 -6.5°
Drops below altitude 10° 03:08:22 10° 244° (WSW) 2,373 4.4 -6.0°
Enters shadow 03:09:16 - 239° (WSW) 2,677 4.7 -5.9°
